Location: Le Domaine
(47.0333°N, 76.5361°W)
Time: 02:10:18
(UTC-05:00)

Explorer 11/Cluster Stage 4 - All Passes

Search period start: 17 November 2019 00:00
Search period end: 27 November 2019 00:00
Orbit: 467 x 1259 km, 28.8° (Epoch: 16 November)

Date Brightness Start Highest point End Pass type
(mag) Time Alt. Az. Time Alt. Az. Time Alt. Az.
17 Nov - 00:06:49 10° SW 00:11:31 17° S 00:16:26 10° SSE night (unlit)
17 Nov - 20:23:02 10° S 20:25:04 11° SSE 20:27:12 10° SE visible
17 Nov - 22:08:13 10° SW 22:12:40 18° S 22:17:29 10° SE night (unlit)
17 Nov - 23:56:14 10° SW 00:00:32 16° S 00:05:03 10° SSE night (unlit)
18 Nov - 20:12:05 10° S 20:14:09 12° SSE 20:16:19 10° SE visible
18 Nov - 21:57:33 10° SW 22:01:43 17° S 22:06:17 10° SE night (unlit)
18 Nov - 23:45:47 10° SW 23:49:34 15° SSW 23:53:32 10° SSE night (unlit)
19 Nov - 20:01:16 10° S 20:03:15 12° SSE 20:05:20 10° SE visible
19 Nov - 21:46:57 10° SW 21:50:48 16° S 21:55:02 10° SE night (unlit)
19 Nov - 23:35:31 10° SW 23:38:36 13° SSW 23:41:50 10° S night (unlit)
20 Nov - 19:50:33 10° S 19:52:22 11° SSE 19:54:17 10° SSE visible
20 Nov - 21:36:26 10° SSW 21:39:54 15° S 21:43:42 10° SSE night (unlit)
20 Nov - 23:25:36 10° SSW 23:27:39 11° SSW 23:29:47 10° S night (unlit)
21 Nov - 19:39:59 10° S 19:41:31 11° SSE 19:43:07 10° SSE visible
21 Nov - 21:26:02 10° SSW 21:29:02 14° S 21:32:16 10° SSE night (unlit)
22 Nov - 19:29:36 10° S 19:30:41 11° SSE 19:31:49 10° SSE visible
22 Nov - 21:15:48 10° SSW 21:18:10 12° S 21:20:43 10° SSE night (unlit)
23 Nov - 21:05:56 10° SSW 21:07:20 11° S 21:08:47 10° S night (unlit)
